Regional Weather Roundup
Issued by NWS Portland, ME

Home | Current Version | Previous Version | Text Only | Print | Product List | Glossary On
Versions: 1 2 3 4 5 6 7 8 9 10 11 12 13 14 15 16 17 18 19 20 21 22 23 24 25 26 27 28 29 30 31 32 33 34 35 36 37 38 39 40 41 42 43 44 45 46 47 48 49 50
000
ASUS41 KGYX 301310
RWRGYX
WEATHER ROUNDUP FOR MAINE AND NEW HAMPSHIRE
NATIONAL WEATHER SERVICE GRAY ME
900 AM EDT TUE JUN 30 2015

MEZ002-005-006-010-012-015-018-020-021-024-026-027-029-301400-
MAINE

CITY           SKY/WX    TMP DP  RH WIND       PRES   REMARKS
PORTLAND       MOSUNNY   71  61  70 N3        30.00R
SANFORD        SUNNY     70  55  60 NW3       30.01R
BAR HARBOR     CLOUDY    64  63  94 CALM      30.00R
WISCASSET      CLOUDY    67  60  78 CALM      30.01R
ROCKLAND       CLOUDY    66  57  72 CALM      29.99R
FRYEBURG       MOSUNNY   69  57  65 CALM      30.01R
LEWISTONAUBURN SUNNY     68  57  68 CALM      30.00S
AUGUSTA        SUNNY     69  55  60 NW5       30.00R
BANGOR         PTSUNNY   67  58  72 S6        29.99R
GREENVILLE       N/A     60  54  80 CALM      29.98R
MILLINOCKET    MOSUNNY   67  54  63 VRB3      29.98R
HOULTON        CLOUDY    63  56  78 SW6       29.95R
PRESQUE ISLE   CLOUDY    61  52  72 W6        29.95R
FRENCHVILLE    CLOUDY    56  53  90 W3        29.94R
CARIBOU        CLOUDY    60  54  80 W6        29.94R
$$

NHZ002-005-008-009-011-012-014-301400-
NEW HAMPSHIRE

CITY           SKY/WX    TMP DP  RH WIND       PRES   REMARKS
PORTSMOUTH     MOSUNNY   69  60  71 W5        29.99R
ROCHESTER      SUNNY     70  58  65 VRB3      29.99S
NASHUA         SUNNY     69  57  65 N6        30.01S
MANCHESTER     MOSUNNY   69  57  65 N5        30.00R
CONCORD        SUNNY     69  58  67 W3        30.01S
LACONIA        MOSUNNY   66  57  72 SW6       30.01R
PLYMOUTH       FAIR      60  60 100 CALM      30.01S
BERLIN         PTSUNNY   64  55  72 VRB3      30.02R
WHITEFIELD     PTSUNNY   65  55  70 CALM      30.02R
JAFFREY        SUNNY     67  55  65 CALM      30.02S
KEENE          SUNNY     64  55  72 CALM      30.02S
LEBANON        CLOUDY    62  57  83 CALM      30.02R
MT WASHINGTON  MOSUNNY   45  41  87 N8          N/A
$$

VTZ005-007-008-301400-
VERMONT

CITY           SKY/WX    TMP DP  RH WIND       PRES   REMARKS
ST JOHNSBURY     N/A     61  55  81 MISG      30.01R
MONTPELIER     SUNNY     60  56  86 CALM      30.06R
BURLINGTON     MOSUNNY   67  57  70 S10       29.99S
$$

MAZ007-012-024-CTZ003-RIZ002-NYZ038-NYZ072-301400-
SOUTHERN NEW ENGLAND AND NY

CITY           SKY/WX    TMP DP  RH WIND       PRES   REMARKS
BOSTON         MOSUNNY   68  61  78 SE3       30.01R
WORCESTER      SUNNY     69  53  56 CALM      30.02F
NANTUCKET      MOSUNNY   68  64  87 SW8       30.03S
PROVIDENCE     MOSUNNY   71  62  73 SW9       30.01F
HARTFORD       MOSUNNY   68  60  75 CALM      30.00S
ALBANY         CLOUDY    67  59  75 CALM      30.00S
NEW YORK CITY  MOSUNNY   75  58  55 S7        29.97F
$$

ANZ081-ANZ082-ANZ150-NHZ014-MEZ023>029-301400-
COASTAL MARINE OBSERVATIONS

STATION/POSITION TIME  TEMP    WIND        PRES    WAVE
                       AIR SEA DIR/SP/G            HT/PER
                 (UTC) (F)     (DEG/KT/KT) (MB)    (FT/S)
MOUNT DESERT ROC 1300   57     160/  7/  7 1015.9R
MATINICUS ROCK   1300   57     260/  4/  4 1015.7R
ISLE OF SHOALS   1300   63     220/  7/  7 1015.4R
JEFFREYS LEDGE   1203      57                N/A     4/ 9
CASHES LEDGE BUO 1250   58 55              1015.6R   4/10
GEORGES BANK BUO 1250   66 58  190/  6/  6 1017.7R   5/ 9
$$

.............KEY..............
   WCI - WIND CHILL
   TC  - TEMPERATURE IN CELSIUS
   VSB - VISIBILITY IN MILES
   HX  - HEAT INDEX
   FAIR- INDICATES FEW OR NO CLOUDS BELOW 12,000 FT, WITH NO
         SIGNIFICANT WEATHER AND/OR OBSTRUCTIONS TO VISIBILITY.




USA.gov is the U.S. government's official web portal to all federal, state and local government web resources and services.